TimeMST,TemperatureF,Dew PointF,Humidity,Sea Level PressureIn,VisibilityMPH,Wind Direction,Wind SpeedMPH,Gust SpeedMPH,PrecipitationIn,Events,Conditions,WindDirDegrees,DateUTC
12:56 AM,18.0,12.0,78,29.97,-9999.0,ENE,9.2,-,N/A,,Unknown,70,2013-02-21 07:56:00
1:56 AM,19.9,16.0,85,29.96,-9999.0,SE,11.5,-,N/A,,Unknown,130,2013-02-21 08:56:00
2:56 AM,19.0,15.1,85,29.96,-9999.0,East,6.9,-,N/A,,Unknown,90,2013-02-21 09:56:00
3:56 AM,19.9,16.0,85,29.96,-9999.0,East,5.8,-,N/A,,Unknown,90,2013-02-21 10:56:00
4:56 AM,19.9,17.1,89,29.99,-9999.0,SE,11.5,-,N/A,,Unknown,140,2013-02-21 11:56:00
5:56 AM,19.9,16.0,85,30.00,-9999.0,ESE,5.8,-,N/A,,Unknown,120,2013-02-21 12:56:00
6:56 AM,19.0,16.0,88,30.03,-9999.0,ESE,8.1,-,N/A,,Unknown,120,2013-02-21 13:56:00
7:56 AM,19.0,16.0,88,30.05,-9999.0,SE,11.5,-,N/A,,Unknown,140,2013-02-21 14:56:00
8:56 AM,19.0,16.0,88,30.05,-9999.0,SE,6.9,-,N/A,,Unknown,140,2013-02-21 15:56:00
9:56 AM,21.0,17.1,85,30.05,-9999.0,SE,4.6,-,N/A,,Unknown,130,2013-02-21 16:56:00
10:56 AM,24.1,18.0,77,30.04,-9999.0,SE,3.5,-,N/A,,Unknown,140,2013-02-21 17:56:00
11:56 AM,25.0,18.0,75,30.02,-9999.0,SSE,5.8,-,N/A,,Unknown,150,2013-02-21 18:56:00
12:56 PM,27.0,19.0,72,30.01,-9999.0,SE,8.1,-,N/A,,Unknown,130,2013-02-21 19:56:00
1:56 PM,27.0,19.0,72,29.99,-9999.0,SE,9.2,-,N/A,,Unknown,140,2013-02-21 20:56:00
2:56 PM,26.1,19.9,78,30.00,-9999.0,SSE,9.2,-,N/A,,Unknown,150,2013-02-21 21:56:00
3:56 PM,26.1,19.0,75,29.99,-9999.0,ESE,5.8,-,N/A,,Unknown,110,2013-02-21 22:56:00
4:56 PM,25.0,19.0,78,29.99,-9999.0,South,9.2,-,N/A,,Unknown,170,2013-02-21 23:56:00
5:56 PM,23.0,18.0,81,30.01,-9999.0,SSE,12.7,-,N/A,,Unknown,160,2013-02-22 00:56:00
6:56 PM,21.9,17.1,82,30.01,-9999.0,SSE,10.4,-,N/A,,Unknown,160,2013-02-22 01:56:00
7:56 PM,21.0,18.0,88,30.01,-9999.0,SE,15.0,-,N/A,,Unknown,140,2013-02-22 02:56:00
8:56 PM,19.9,17.1,89,30.01,-9999.0,SE,10.4,-,N/A,,Unknown,140,2013-02-22 03:56:00
9:56 PM,19.9,16.0,85,30.01,-9999.0,SSE,10.4,-,N/A,,Unknown,150,2013-02-22 04:56:00
10:56 PM,19.0,16.0,88,29.99,-9999.0,SSE,6.9,-,N/A,,Unknown,160,2013-02-22 05:56:00
11:56 PM,19.0,16.0,88,29.98,-9999.0,South,4.6,-,0.01,,Unknown,170,2013-02-22 06:56:00